Weather History for Oxford, CT

Change the Weather History Date:

Friday, April 18, 2014

  Actual Average Record
Temperature  
Mean Temperature 38 °F -  
Max Temperature 48 °F 56 °F 84 °F (2002)
Min Temperature 28 °F 37 °F 28 °F (2003)
Degree Days  
Heating Degree Days 27    
Moisture  
Dew Point 24 °F    
Average Humidity 64    
Maximum Humidity 75    
Minimum Humidity 46    
Precipitation  
Precipitation 0.00 in - - ()
Sea Level Pressure  
Sea Level Pressure 30.46 in    
Wind  
Wind Speed 5 mph (East)    
Max Wind Speed 9 mph    
Max Gust Speed -    
Visibility 10 miles    
Events      
Averages and records for this station are not official NWS values.
T = Trace of Precipitation, MM = Missing Value Source: NWS Daily Summary

Daily Weather History Graph

Daily Weather History Graph

Search for Another Location

Airport:

Trip Planner

Search our weather history database for the weather conditions in past years. The results will help you decide how hot, cold, wet, or windy it might be!

Date:

Astronomy

Apr. 18, 2014 Rise Set
Actual Time 6:08 AM EDT 7:36 PM EDT
Civil Twilight 5:39 AM EDT 8:05 PM EDT
Nautical Twilight 5:04 AM EDT 8:40 PM EDT
Astronomical Twilight 4:27 AM EDT 9:17 PM EDT
Moon 11:20 PM EDT (4/18) 8:26 AM EDT (4/18)
Length of Visible Light 14h 25m
Length of Day
13h 28m
Waning Gibbous, 87% of the Moon is Illuminated
Apr 18
Waning Gibbous
Apr 22
Last Quarter
Apr 29
New
May 6
First Quarter
May 14
Full

Hourly Weather History & Observations

Time (EDT) Temp. Windchill Dew Point Humidity Pressure Visibility Wind Dir Wind Speed Gust Speed Precip Events Conditions
12:15 AM 33.8 °F 29.6 °F 23.0 °F 65% 30.61 in 10.0 mi ENE 4.6 mph - N/A   Clear
12:35 AM 32.0 °F 27.5 °F 21.2 °F 64% 30.61 in 10.0 mi ENE 4.6 mph - N/A   Clear
12:55 AM 32.0 °F 27.5 °F 21.2 °F 64% 30.61 in 10.0 mi ENE 4.6 mph - N/A   Clear
1:15 AM 30.2 °F 24.3 °F 21.2 °F 69% 30.61 in 10.0 mi ENE 5.8 mph - N/A   Clear
1:35 AM 30.2 °F 25.4 °F 21.2 °F 69% 30.60 in 10.0 mi ENE 4.6 mph - N/A   Clear
1:55 AM 30.2 °F 24.3 °F 21.2 °F 69% 30.60 in 10.0 mi ENE 5.8 mph - N/A   Clear
2:15 AM 30.2 °F 24.3 °F 21.2 °F 69% 30.60 in 10.0 mi NE 5.8 mph - N/A   Clear
2:35 AM 30.2 °F 25.4 °F 19.4 °F 64% 30.61 in 10.0 mi NE 4.6 mph - N/A   Clear
2:55 AM 30.2 °F 25.4 °F 19.4 °F 64% 30.60 in 10.0 mi NE 4.6 mph - N/A   Clear
3:15 AM 30.2 °F 23.4 °F 19.4 °F 64% 30.60 in 10.0 mi ENE 6.9 mph - N/A   Clear
3:55 AM 28.4 °F 21.2 °F 19.4 °F 69% 30.57 in 10.0 mi NE 6.9 mph - N/A   Clear
4:15 AM 28.4 °F 21.2 °F 19.4 °F 69% 30.57 in 10.0 mi NE 6.9 mph - N/A   Clear
4:35 AM 28.4 °F 22.2 °F 19.4 °F 69% 30.56 in 10.0 mi NE 5.8 mph - N/A   Clear
4:55 AM 28.4 °F 20.4 °F 19.4 °F 69% 30.53 in 10.0 mi ENE 8.1 mph - N/A   Clear
5:15 AM 28.4 °F 22.2 °F 19.4 °F 69% 30.50 in 10.0 mi ENE 5.8 mph - N/A   Clear
5:35 AM 28.4 °F 22.2 °F 19.4 °F 69% 30.51 in 10.0 mi ENE 5.8 mph - N/A   Clear
5:52 AM 28.4 °F 21.2 °F 19.4 °F 69% 30.52 in 10.0 mi ENE 6.9 mph - N/A   Partly Cloudy
5:55 AM 28.4 °F 22.2 °F 19.4 °F 69% 30.52 in 10.0 mi ENE 5.8 mph - N/A   Clear
6:52 AM 28.4 °F 21.2 °F 19.4 °F 69% 30.52 in 10.0 mi ENE 6.9 mph - N/A   Partly Cloudy
7:52 AM 30.2 °F 23.4 °F 23.0 °F 75% 30.55 in 10.0 mi NE 6.9 mph - N/A   Partly Cloudy
8:52 AM 33.8 °F 29.6 °F 24.8 °F 70% 30.56 in 10.0 mi ENE 4.6 mph - N/A   Mostly Cloudy
9:52 AM 37.4 °F 31.4 °F 24.8 °F 60% 30.54 in 10.0 mi East 8.1 mph - N/A   Mostly Cloudy
10:52 AM 37.4 °F 30.8 °F 26.6 °F 65% 30.50 in 10.0 mi East 9.2 mph - N/A   Mostly Cloudy
11:52 AM 39.2 °F 35.0 °F 28.4 °F 65% 30.48 in 10.0 mi Variable 5.8 mph - N/A   Partly Cloudy
12:52 PM 41.0 °F 38.0 °F 26.6 °F 57% 30.48 in 10.0 mi North 4.6 mph - N/A   Overcast
1:30 PM 44.6 °F 39.7 °F 28.4 °F 53% 30.47 in 10.0 mi SE 9.2 mph - N/A   Clear
1:50 PM 44.6 °F 41.4 °F 26.6 °F 49% 30.45 in 10.0 mi SSE 5.8 mph - N/A   Clear
2:58 PM 48.2 °F - 28.4 °F 46% 30.41 in 10.0 mi SE 4.6 mph - N/A   Clear
3:48 PM 48.2 °F - 30.2 °F 50% 30.37 in 10.0 mi SE 6.9 mph - N/A   Clear
4:48 PM 46.4 °F 44.3 °F 30.2 °F 53% 30.35 in 10.0 mi South 4.6 mph - N/A   Clear
5:48 PM 44.6 °F 40.7 °F 30.2 °F 57% 30.34 in 10.0 mi South 6.9 mph - N/A   Scattered Clouds
6:50 PM 42.8 °F 38.6 °F 28.4 °F 57% 30.32 in 10.0 mi South 6.9 mph - N/A   Scattered Clouds
7:55 PM 39.2 °F 35.0 °F 26.6 °F 61% 30.30 in 10.0 mi South 5.8 mph - N/A   Scattered Clouds
9:15 PM 39.2 °F 35.9 °F 28.4 °F 65% 30.30 in 10.0 mi SSW 4.6 mph - N/A   Clear
9:35 PM 39.2 °F 35.9 °F 28.4 °F 65% 30.30 in 10.0 mi SSW 4.6 mph - N/A   Clear
9:55 PM 39.2 °F 37.0 °F 28.4 °F 65% 30.30 in 10.0 mi SSW 3.5 mph - N/A   Clear
10:15 PM 39.2 °F 37.0 °F 26.6 °F 61% 30.30 in 10.0 mi SW 3.5 mph - N/A   Clear
10:35 PM 39.2 °F 37.0 °F 28.4 °F 65% 30.29 in 10.0 mi SSW 3.5 mph - N/A   Clear
10:55 PM 39.2 °F 37.0 °F 26.6 °F 61% 30.28 in 10.0 mi SW 3.5 mph - N/A   Clear
11:15 PM 37.4 °F - 28.4 °F 70% 30.26 in 10.0 mi Calm Calm - N/A   Clear
11:35 PM 37.4 °F 33.8 °F 28.4 °F 70% 30.26 in 10.0 mi SW 4.6 mph - N/A   Clear
11:55 PM 37.4 °F 34.9 °F 28.4 °F 70% 30.26 in 10.0 mi SW 3.5 mph - N/A   Clear